Gilead, NE

4:42 AM CDT on September 30, 2016 (GMT -0500)
Hebron Municipal

Weather History for KHJH - October, 2013

Change the Weather History Date:

Tuesday, October 8, 2013

  Actual Average Record
Temperature  
Mean Temperature 66 °F -  
Max Temperature 80 °F 69 °F 91 °F (2010)
Min Temperature 52 °F 42 °F 22 °F (1952)
Cooling Degree Days 1    
Growing Degree Days 16 (Base 50)    
Moisture  
Dew Point 39 °F    
Average Humidity 40    
Maximum Humidity 61    
Minimum Humidity 20    
Precipitation  
Precipitation 0.00 in - - ()
Sea Level Pressure  
Sea Level Pressure 29.94 in    
Wind  
Wind Speed 14 mph (South)    
Max Wind Speed 25 mph    
Max Gust Speed 33 mph    
Visibility 10 miles    
Events      
Averages and records for this station are not official NWS values.
T = Trace of Precipitation, MM = Missing Value Source: NWS Daily Summary

Daily Weather History Graph

Daily Weather History Graph

Search for Another Location

Airport or City:

Trip Planner

Search our weather history database for the weather conditions in past years. The results will help you decide how hot, cold, wet, or windy it might be!

Date:

Astronomy

Oct. 08, 2013 Rise Set
Actual Time 7:33 AM CDT 7:00 PM CDT
Civil Twilight 7:06 AM CDT 7:28 PM CDT
Nautical Twilight 6:35 AM CDT 7:59 PM CDT
Astronomical Twilight 6:03 AM CDT 8:30 PM CDT
Moon 11:29 AM CDT (10/8) 9:38 PM CDT (10/8)
Length of Visible Light 12h 21m
Length of Day
11h 26m
Waxing Crescent, 16% of the Moon is Illuminated
Oct 8
Waxing Crescent
Oct 11
First Quarter
Oct 18
Full
Oct 26
Last Quarter
Nov 3
New

Hourly Weather History & Observations

Time (CDT) Temp. Dew Point Humidity Pressure Visibility Wind Dir Wind Speed Gust Speed Precip Events Conditions
12:15 AM 61.0 °F 35.8 °F 39% 30.00 in 10.0 mi South 11.5 mph - N/A   Clear
12:35 AM 60.3 °F 35.8 °F 40% 30.00 in 10.0 mi South 11.5 mph 17.3 mph N/A   Clear
12:55 AM 59.7 °F 36.5 °F 42% 30.00 in 10.0 mi South 12.7 mph - N/A   Clear
1:15 AM 58.5 °F 36.9 °F 45% 30.00 in 10.0 mi South 12.7 mph - N/A   Clear
1:35 AM 58.1 °F 36.9 °F 45% 30.00 in 10.0 mi South 12.7 mph 17.3 mph N/A   Clear
1:55 AM 57.4 °F 37.4 °F 47% 30.00 in 10.0 mi South 11.5 mph - N/A   Clear
2:15 AM 56.5 °F 37.6 °F 49% 30.00 in 10.0 mi South 10.4 mph - N/A   Clear
2:35 AM 55.4 °F 37.9 °F 52% 30.00 in 10.0 mi SSW 6.9 mph - N/A   Clear
2:55 AM 55.9 °F 37.6 °F 50% 30.00 in 10.0 mi SSW 10.4 mph - N/A   Clear
3:15 AM 56.3 °F 37.4 °F 49% 30.00 in 10.0 mi SSW 10.4 mph - N/A   Clear
3:35 AM 55.4 °F 37.8 °F 52% 30.00 in 10.0 mi SSW 8.1 mph - N/A   Clear
3:55 AM 54.9 °F 38.1 °F 53% 29.99 in 10.0 mi South 5.8 mph - N/A   Clear
4:15 AM 54.5 °F 38.5 °F 55% 29.99 in 10.0 mi South 6.9 mph - N/A   Clear
4:35 AM 54.7 °F 38.7 °F 55% 29.98 in 10.0 mi South 10.4 mph - N/A   Clear
4:55 AM 54.5 °F 39.0 °F 56% 29.98 in 10.0 mi South 11.5 mph - N/A   Clear
5:15 AM 54.9 °F 38.8 °F 55% 29.99 in 10.0 mi South 12.7 mph - N/A   Clear
5:35 AM 54.5 °F 39.2 °F 56% 29.99 in 10.0 mi South 10.4 mph 17.3 mph N/A   Clear
5:55 AM 54.1 °F 39.2 °F 57% 29.99 in 10.0 mi South 12.7 mph 16.1 mph N/A   Clear
6:15 AM 54.0 °F 39.2 °F 57% 29.98 in 10.0 mi South 10.4 mph - N/A   Clear
6:35 AM 53.2 °F 39.4 °F 59% 29.98 in 10.0 mi South 10.4 mph - N/A   Clear
6:55 AM 52.7 °F 39.4 °F 61% 29.98 in 10.0 mi South 9.2 mph - N/A   Clear
7:15 AM 52.7 °F 39.4 °F 61% 29.97 in 10.0 mi South 9.2 mph - N/A   Clear
7:35 AM 52.7 °F 39.4 °F 61% 29.97 in 10.0 mi South 11.5 mph - N/A   Clear
7:55 AM 52.7 °F 39.6 °F 61% 29.97 in 10.0 mi South 11.5 mph - N/A   Clear
8:15 AM 53.8 °F 39.4 °F 58% 29.97 in 10.0 mi South 9.2 mph - N/A   Clear
8:35 AM 55.8 °F 39.4 °F 54% 29.97 in 10.0 mi South 13.8 mph 19.6 mph N/A   Clear
8:55 AM 58.1 °F 38.7 °F 48% 29.97 in 10.0 mi South 18.4 mph 25.3 mph N/A   Clear
9:15 AM 59.7 °F 38.3 °F 45% 29.97 in 10.0 mi South 20.7 mph 26.5 mph N/A   Clear
9:35 AM 61.0 °F 38.3 °F 43% 29.97 in 10.0 mi South 21.9 mph 27.6 mph N/A   Clear
9:55 AM 62.1 °F 38.1 °F 41% 29.98 in 10.0 mi South 20.7 mph 31.1 mph N/A   Clear
10:15 AM 64.2 °F 38.3 °F 38% 29.98 in 10.0 mi South 20.7 mph 29.9 mph N/A   Clear
10:35 AM 66.2 °F 38.3 °F 36% 29.97 in 10.0 mi South 20.7 mph 27.6 mph N/A   Clear
10:55 AM 68.2 °F 37.2 °F 32% 29.97 in 10.0 mi South 21.9 mph 31.1 mph N/A   Clear
11:15 AM 69.8 °F 36.5 °F 29% 29.96 in 10.0 mi South 24.2 mph 31.1 mph N/A   Clear
11:35 AM 70.9 °F 36.3 °F 28% 29.96 in 10.0 mi South 21.9 mph 32.2 mph N/A   Clear
11:55 AM 72.3 °F 36.3 °F 27% 29.96 in 10.0 mi South 25.3 mph 33.4 mph N/A   Clear
12:15 PM 73.6 °F 36.1 °F 26% 29.95 in 10.0 mi South 24.2 mph 29.9 mph N/A   Clear
12:35 PM 74.5 °F 36.0 °F 25% 29.95 in 10.0 mi South 20.7 mph 28.8 mph N/A   Clear
12:55 PM 75.9 °F 36.9 °F 24% 29.94 in 10.0 mi South 20.7 mph 29.9 mph N/A   Clear
1:15 PM 76.3 °F 36.3 °F 24% 29.93 in 10.0 mi South 21.9 mph 29.9 mph N/A   Clear
1:35 PM 77.2 °F 36.9 °F 23% 29.92 in 10.0 mi South 20.7 mph 32.2 mph N/A   Clear
1:55 PM 78.1 °F 36.7 °F 22% 29.91 in 10.0 mi South 25.3 mph 29.9 mph N/A   Clear
2:15 PM 78.8 °F 36.3 °F 22% 29.90 in 10.0 mi South 21.9 mph 29.9 mph N/A   Clear
2:35 PM 79.2 °F 36.1 °F 21% 29.90 in 10.0 mi South 23.0 mph 31.1 mph N/A   Clear
2:55 PM 79.0 °F 36.3 °F 21% 29.90 in 10.0 mi South 21.9 mph 33.4 mph N/A   Clear
3:15 PM 79.7 °F 35.6 °F 20% 29.89 in 10.0 mi South 20.7 mph 33.4 mph N/A   Clear
3:35 PM 79.9 °F 35.4 °F 20% 29.89 in 10.0 mi South 20.7 mph 28.8 mph N/A   Clear
3:55 PM 80.2 °F 35.4 °F 20% 29.88 in 10.0 mi South 19.6 mph 32.2 mph N/A   Clear
4:15 PM 79.7 °F 34.9 °F 20% 29.88 in 10.0 mi South 19.6 mph 27.6 mph N/A   Clear
4:35 PM 79.7 °F 36.1 °F 21% 29.88 in 10.0 mi South 20.7 mph 26.5 mph N/A   Clear
4:55 PM 79.0 °F 36.0 °F 21% 29.88 in 10.0 mi South 17.3 mph 28.8 mph N/A   Clear
5:15 PM 77.9 °F 37.0 °F 23% 29.87 in 10.0 mi South 18.4 mph 25.3 mph N/A   Clear
5:35 PM 78.4 °F 37.0 °F 22% 29.87 in 10.0 mi SSE 15.0 mph 26.5 mph N/A   Clear
5:55 PM 77.2 °F 37.6 °F 24% 29.87 in 10.0 mi SSE 16.1 mph 25.3 mph N/A   Clear
6:15 PM 76.1 °F 37.8 °F 25% 29.87 in 10.0 mi SSE 12.7 mph 24.2 mph N/A   Clear
6:35 PM 74.1 °F 38.7 °F 28% 29.87 in 10.0 mi SSE 15.0 mph 19.6 mph N/A   Clear
6:55 PM 72.9 °F 39.6 °F 30% 29.87 in 10.0 mi SSE 16.1 mph 21.9 mph N/A   Clear
7:15 PM 70.9 °F 41.0 °F 34% 29.87 in 10.0 mi SSE 13.8 mph 18.4 mph N/A   Clear
7:35 PM 69.4 °F 41.5 °F 36% 29.88 in 10.0 mi SSE 11.5 mph 17.3 mph N/A   Clear
7:55 PM 68.7 °F 41.9 °F 38% 29.88 in 10.0 mi SSE 13.8 mph - N/A   Clear
8:15 PM 68.4 °F 41.9 °F 38% 29.89 in 10.0 mi SSE 12.7 mph 20.7 mph N/A   Clear
8:35 PM 67.5 °F 41.7 °F 39% 29.90 in 10.0 mi SSE 11.5 mph - N/A   Clear
8:55 PM 66.6 °F 41.9 °F 41% 29.90 in 10.0 mi SSE 11.5 mph 16.1 mph N/A   Clear
9:15 PM 65.8 °F 42.4 °F 43% 29.91 in 10.0 mi SSE 10.4 mph - N/A   Clear
9:35 PM 64.6 °F 43.0 °F 45% 29.92 in 10.0 mi SSE 9.2 mph - N/A   Clear
9:55 PM 63.7 °F 43.7 °F 48% 29.92 in 10.0 mi SSE 10.4 mph 16.1 mph N/A   Clear
10:15 PM 64.0 °F 44.8 °F 50% 29.92 in 10.0 mi SSE 11.5 mph 18.4 mph N/A   Clear
10:35 PM 63.7 °F 45.7 °F 52% 29.92 in 10.0 mi SSE 13.8 mph 17.3 mph N/A   Clear
10:55 PM 63.5 °F 46.4 °F 54% 29.93 in 10.0 mi SSE 12.7 mph 19.6 mph N/A   Clear
11:15 PM 63.0 °F 46.8 °F 55% 29.93 in 10.0 mi SSE 15.0 mph 19.6 mph N/A   Clear
11:35 PM 62.6 °F 47.3 °F 57% 29.93 in 10.0 mi SSE 12.7 mph 19.6 mph N/A   Clear
11:55 PM 61.7 °F 47.8 °F 60% 29.93 in 10.0 mi SSE 12.7 mph 16.1 mph N/A   Clear